1516622400.32,20395,4.25,72292.5,-5.13,-44.67,-44.79,0,*55
1516622401.53,20396,4.31,72292.5,-5.13,-44.61,-44.61,0,*59
1516622402.79,20397,4.25,72292.8,-5.13,-44.21,-44.13,0,*59
1516622404.0,20398,4.25,72290.5,-5.13,-43.75,-43.95,0,*59
1516622405.26,20399,4.31,72294.8,-5.13,-43.67,-43.67,0,*56
1516622406.47,20400,4.31,72292.5,-5.13,-43.75,-43.75,0,*51
1516622407.71,20401,4.31,72296.3,-5.13,-43.55,-43.41,0,*55
1516622408.91,20402,4.25,72292.8,-5.13,-44.41,-44.41,0,*53
1516622410.15,20403,4.25,72292.3,-5.13,-44.67,-44.79,0,*5D
1516622411.41,20404,4.25,72292.0,-5.11,-44.87,-45.07,0,*5E
1516622412.65,20405,4.25,72294.3,-5.17,-44.87,-44.93,0,*55
1516622413.86,20406,4.25,72292.0,-5.17,-44.27,-44.41,0,*53
1516622415.12,20407,4.31,72296.8,-5.13,-44.21,-44.33,0,*55
1516622416.33,20408,4.25,72294.0,-5.13,-44.41,-44.61,0,*5B
1516622417.56,20409,4.31,72294.0,-5.13,-44.07,-44.21,0,*5C
1516622418.77,20410,4.31,72292.0,-5.13,-44.53,-44.41,0,*53
1516622419.98,20411,4.25,72288.8,-5.13,-44.99,-44.99,0,*51
1516622421.2,20412,4.25,72290.3,-5.17,-45.73,-45.87,0,*5D
1516622422.43,20413,4.25,72290.5,-5.17,-45.73,-45.87,0,*5C
1516622423.66,20414,4.31,72292.8,-5.21,-45.81,-45.95,0,*50
1516622424.92,20415,4.25,72288.5,-5.19,-45.95,-45.81,0,*5A
1516622426.15,20416,4.31,72292.5,-5.19,-45.41,-45.41,0,*5C
1516622427.36,20417,4.31,72292.5,-5.21,-45.41,-45.53,0,*55
1516622428.61,20418,4.31,72292.0,-5.21,-45.73,-45.81,0,*54
1516622429.84,20419,4.25,72290.8,-5.21,-45.73,-45.95,0,*50
1516622431.08,20420,4.31,72294.3,-5.27,-45.87,-46.01,0,*59
1516622432.36,20421,4.31,72290.5,-5.27,-45.81,-46.07,0,*58
1516622433.63,20422,4.25,72288.0,-5.27,-45.27,-45.41,0,*56
1516622434.89,20423,4.25,72288.5,-5.27,-44.61,-44.73,0,*54
1516622436.16,20424,4.31,72294.0,-5.29,-44.93,-44.93,0,*5E
1516622437.4,20425,4.31,72290.3,-5.29,-45.47,-45.67,0,*5D
1516622438.62,20426,4.25,72288.8,-5.29,-45.53,-45.87,0,*55
1516622439.86,20427,4.25,72288.0,-5.29,-45.53,-45.73,0,*5F
1516622441.09,20428,4.31,72290.5,-5.31,-45.95,-45.95,0,*5B
1516622442.38,20429,4.25,72286.3,-5.31,-44.21,-44.47,0,*5A
1516622443.6,20430,4.31,72288.3,-5.33,-43.87,-44.07,0,*5F
1516622444.87,20431,4.31,72292.0,-5.31,-44.21,-44.27,0,*55
1516622446.11,20432,4.25,72288.0,-5.29,-44.93,-45.13,0,*50
1516622447.37,20433,4.31,72290.8,-5.31,-45.87,-46.07,0,*5A
1516622448.6,20434,4.31,72294.0,-5.33,-45.41,-45.41,0,*54
1516622449.86,20435,4.31,72292.5,-5.33,-44.93,-45.21,0,*5D
1516622451.1,20436,4.31,72290.5,-5.33,-45.95,-46.01,0,*58
1516622452.3,20437,4.25,72290.5,-5.35,-45.13,-45.41,0,*56
1516622453.54,20438,4.31,72294.0,-5.33,-44.99,-45.21,0,*5A
1516622454.77,20439,4.31,72292.3,-5.35,-44.93,-44.99,0,*55
1516622455.98,20440,4.25,72290.3,-5.35,-44.27,-44.53,0,*52
1516622457.23,20441,4.31,72290.3,-5.35,-44.67,-44.93,0,*5B
1516622458.43,20442,4.31,72292.3,-5.35,-43.95,-44.53,0,*5E
1516622459.67,20443,4.31,72292.8,-5.35,-44.93,-45.33,0,*59
1516622460.88,20444,4.31,72288.5,-5.35,-43.75,-43.95,0,*5B
1516622462.14,20445,4.31,72290.8,-5.33,-44.47,-44.87,0,*5E
1516622463.34,20446,4.31,72292.5,-5.35,-45.13,-45.33,0,*55
1516622464.57,20447,4.31,72294.3,-5.35,-44.67,-44.87,0,*58
1516622465.81,20448,4.31,72292.5,-5.33,-44.99,-45.33,0,*5E
1516622467.02,20449,4.31,72294.0,-5.35,-45.61,-46.01,0,*5D
1516622468.28,20450,4.25,72290.0,-5.39,-45.27,-45.47,0,*5A
1516622469.55,20451,4.25,72290.3,-5.41,-45.47,-45.53,0,*57
1516622470.75,20452,4.31,72290.5,-5.39,-45.41,-45.67,0,*5A
1516622472.03,20453,4.31,72292.0,-5.41,-44.21,-44.47,0,*50
1516622473.26,20454,4.31,72292.0,-5.39,-44.73,-44.99,0,*5C
1516622474.53,20455,4.31,72292.0,-5.41,-45.95,-46.15,0,*5D
1516622475.82,20456,4.31,72292.3,-5.41,-46.15,-46.27,0,*54
1516622477.08,20457,4.31,72294.0,-5.41,-44.67,-44.99,0,*55
1516622478.34,20458,4.31,72292.5,-5.41,-44.47,-44.87,0,*57
1516622479.58,20459,4.25,72288.3,-5.41,-44.61,-44.87,0,*52
1516622480.82,20460,4.31,72294.3,-5.43,-44.47,-44.87,0,*5E
1516622482.06,20461,4.31,72294.5,-5.43,-44.79,-45.07,0,*5B
1516622483.27,20462,4.31,72292.0,-5.39,-44.53,-44.87,0,*54
1516622484.49,20463,4.31,72294.3,-5.39,-44.33,-44.53,0,*5A
1516622485.75,20464,4.25,72288.3,-5.41,-44.27,-44.67,0,*50
1516622486.99,20465,4.31,72294.5,-5.41,-45.53,-45.95,0,*5F
1516622488.22,20466,4.31,72296.8,-5.43,-47.23,-47.65,0,*56
1516622489.45,20467,4.31,72290.8,-5.43,-46.55,-47.03,0,*57
1516622490.71,20468,4.31,72294.8,-5.45,-45.73,-46.01,0,*5A
1516622491.97,20469,4.31,72292.3,-5.45,-46.35,-46.61,0,*5C
1516622493.24,20470,4.31,72290.8,-5.45,-46.21,-46.41,0,*53
1516622494.5,20471,4.31,72294.8,-5.49,-45.27,-45.41,0,*58
1516622495.76,20472,4.31,72294.3,-5.49,-45.87,-46.07,0,*50
1516622497.03,20473,4.31,72294.0,-5.45,-45.95,-46.15,0,*5D
1516622498.26,20474,4.31,72296.8,-5.49,-45.87,-46.21,0,*52
1516622499.54,20475,4.31,72292.3,-5.49,-46.27,-46.69,0,*56
1516622500.81,20476,4.31,72292.0,-5.51,-47.79,-48.27,0,*52
1516622502.07,20477,4.31,72292.3,-5.53,-46.61,-46.97,0,*5C
1516622503.34,20478,4.31,72294.0,-5.53,-46.27,-46.35,0,*59
1516622504.6,20479,4.31,72292.0,-5.53,-45.53,-45.73,0,*59
1516622505.86,20480,4.31,72292.3,-5.53,-45.87,-46.27,0,*54
1516622507.09,20481,4.31,72290.8,-5.55,-45.67,-46.07,0,*5F
1516622508.3,20482,4.31,72292.8,-5.55,-45.53,-45.87,0,*50
1516622509.51,20483,4.31,72290.5,-5.55,-45.21,-45.33,0,*5B
1516622510.78,20484,4.25,72290.0,-5.55,-46.27,-46.49,0,*57
1516622512.04,20485,4.31,72290.0,-5.57,-46.41,-46.55,0,*59
1516622513.3,20486,4.31,72294.8,-5.61,-46.89,-47.17,0,*5C
1516622514.56,20487,4.31,72294.8,-5.61,-46.69,-46.75,0,*56
1516622515.84,20488,4.31,72296.0,-5.61,-46.41,-46.61,0,*56
1516622517.1,20489,4.31,72292.8,-5.61,-46.69,-46.97,0,*54
1516622518.34,20490,4.31,72290.8,-5.63,-45.67,-46.07,0,*5A
1516622519.55,20491,4.31,72294.3,-5.63,-45.21,-45.41,0,*58
1516622520.77,20492,4.31,72294.5,-5.63,-43.75,-43.95,0,*53
1516622522.05,20493,4.31,72288.8,-5.61,-44.13,-44.21,0,*5F
1516622523.32,20494,4.31,72290.5,-5.61,-44.73,-44.99,0,*5D
1516622524.55,20495,4.31,72292.3,-5.63,-45.13,-45.47,0,*5B
1516622525.78,20496,4.31,72294.8,-5.63,-45.41,-45.81,0,*55
1516622527.03,20497,4.31,72292.0,-5.61,-44.99,-45.21,0,*58
1516622528.29,20498,4.31,72288.3,-5.61,-44.93,-45.13,0,*5C
1516622529.58,20499,4.31,72292.3,-5.61,-44.73,-44.93,0,*5A
1516622530.82,20500,4.31,72290.5,-5.61,-43.87,-43.95,0,*56
1516622532.1,20501,4.31,72290.8,-5.57,-44.67,-44.93,0,*5A
1516622533.34,20502,4.31,72292.8,-5.57,-45.13,-45.33,0,*50
1516622534.56,20503,4.31,72292.3,-5.57,-45.33,-45.41,0,*56
1516622535.82,20504,4.31,72294.0,-5.57,-44.53,-44.67,0,*53
1516622537.09,20505,4.31,72292.5,-5.57,-44.33,-44.47,0,*56
1516622538.33,20506,4.31,72294.3,-5.55,-44.27,-44.33,0,*51
1516622539.58,20507,4.31,72292.0,-5.57,-44.07,-44.01,0,*51
1516622540.82,20508,4.31,72292.5,-5.57,-44.07,-44.27,0,*5A
1516622542.05,20509,4.31,72288.5,-5.55,-43.75,-43.81,0,*50
1516622543.3,20510,4.31,72292.5,-5.55,-43.81,-43.81,0,*53
1516622544.58,20511,4.31,72292.8,-5.53,-42.95,-42.83,0,*53
1516622545.79,20512,4.31,72294.5,-5.51,-43.15,-43.15,0,*55
1516622547.05,20513,4.31,72294.5,-5.51,-43.55,-43.67,0,*55
1516622548.26,20514,4.31,72290.3,-5.51,-43.15,-43.35,0,*51
1516622549.55,20515,4.31,72294.5,-5.49,-43.09,-43.29,0,*59
1516622550.83,20516,4.31,72296.5,-5.49,-43.67,-43.81,0,*50
1516622552.07,20517,4.31,72292.8,-5.49,-43.75,-43.95,0,*57
1516622553.33,20518,4.31,72292.5,-5.45,-43.29,-43.41,0,*54
1516622554.6,20519,4.31,72296.0,-5.45,-43.29,-43.41,0,*55
1516622555.88,20520,4.31,72292.8,-5.45,-43.21,-43.29,0,*59
1516622557.16,20521,4.31,72294.0,-5.45,-43.67,-43.81,0,*58
1516622558.4,20522,4.31,72294.0,-5.45,-44.07,-44.27,0,*51
1516622559.64,20523,4.31,72290.0,-5.45,-43.41,-43.49,0,*5A
1516622560.9,20524,4.31,72290.8,-5.45,-43.29,-43.41,0,*5B
1516622562.14,20525,4.31,72292.8,-5.43,-43.55,-43.61,0,*55
1516622563.35,20526,4.31,72292.5,-5.43,-42.75,-43.15,0,*56
1516622564.56,20527,4.31,72292.0,-5.43,-42.63,-42.75,0,*57
1516622565.81,20528,4.31,72292.3,-5.41,-43.01,-43.15,0,*58
1516622567.06,20529,4.31,72290.3,-5.39,-43.21,-43.55,0,*50
1516622568.29,20530,4.31,72296.0,-5.39,-43.75,-43.81,0,*50
1516622569.5,20531,4.31,72292.3,-5.39,-43.75,-43.95,0,*54
1516622570.78,20532,4.31,72296.3,-5.41,-43.55,-43.81,0,*5F
1516622572.06,20533,4.31,72298.8,-5.41,-43.55,-43.81,0,*5E
1516622573.31,20534,4.31,72292.0,-5.39,-43.81,-44.01,0,*50
1516622574.52,20535,4.31,72296.5,-5.39,-43.15,-43.35,0,*5C
1516622575.75,20536,4.31,72294.3,-5.35,-42.89,-43.09,0,*58
1516622576.99,20537,4.31,72296.3,-5.35,-42.25,-42.31,0,*55
1516622578.22,20538,4.31,72294.5,-5.35,-42.51,-42.69,0,*54
1516622579.48,20539,4.31,72292.0,-5.33,-42.05,-42.25,0,*5A
1516622580.74,20540,4.31,72296.8,-5.31,-42.25,-42.45,0,*52
1516622582.03,20541,4.31,72294.5,-5.31,-42.57,-42.95,0,*5B
1516622583.28,20542,4.31,72298.3,-5.29,-42.95,-43.35,0,*54
1516622584.5,20543,4.31,72296.3,-5.29,-43.41,-43.61,0,*5C
1516622585.76,20544,4.31,72298.5,-5.29,-43.21,-43.55,0,*5A
1516622586.98,20545,4.31,72294.3,-5.29,-42.25,-42.25,0,*58
1516622588.21,20546,4.31,72292.5,-5.29,-42.37,-42.45,0,*5E
1516622589.47,20547,4.31,72292.0,-5.25,-41.93,-42.05,0,*5A
1516622590.73,20548,4.31,72296.5,-5.25,-41.93,-42.05,0,*55
1516622591.96,20549,4.31,72298.0,-5.21,-42.05,-42.13,0,*5B
1516622593.2,20550,4.31,72296.5,-5.21,-41.99,-42.05,0,*52
1516622594.48,20551,4.31,72296.5,-5.19,-41.67,-41.81,0,*56
1516622595.74,20552,4.31,72294.5,-5.19,-41.81,-41.99,0,*54
1516622596.97,20553,4.31,72292.5,-5.13,-41.99,-42.05,0,*50
1516622598.18,20554,4.31,72296.5,-5.13,-41.99,-41.99,0,*51
1516622599.43,20555,4.31,72294.5,-5.13,-41.93,-41.93,0,*50
1516622600.69,20556,4.31,72298.0,-5.11,-41.49,-41.55,0,*5C
1516622601.94,20557,4.31,72294.5,-5.11,-42.37,-42.69,0,*5B
1516622603.17,20558,4.31,72294.8,-5.09,-41.87,-41.93,0,*53
1516622604.45,20559,4.31,72292.8,-5.11,-42.57,-42.69,0,*53
1516622605.7,20560,4.31,72298.3,-5.09,-42.31,-42.83,0,*54
1516622606.92,20561,4.31,72298.3,-5.09,-42.13,-42.25,0,*59
1516622608.15,20562,4.31,72292.8,-5.05,-41.61,-41.81,0,*5D
1516622609.39,20563,4.31,72296.3,-5.05,-41.81,-41.87,0,*54
1516622610.62,20564,4.31,72294.5,-5.05,-42.75,-42.83,0,*5C
1516622611.84,20565,4.31,72296.3,-5.05,-42.25,-42.63,0,*56
1516622613.1,20566,4.31,72296.5,-5.03,-42.51,-42.69,0,*5A
1516622614.33,20567,4.31,72292.5,-5.03,-42.37,-42.75,0,*56
1516622615.58,20568,4.31,72294.5,-5.03,-42.57,-42.89,0,*5C
1516622616.84,20569,4.31,72294.8,-5.01,-42.95,-43.09,0,*58
1516622618.13,20570,4.31,72294.0,-5.03,-42.95,-42.95,0,*56
1516622619.39,20571,4.31,72296.0,-5.03,-42.69,-42.75,0,*5A
1516622620.65,20572,4.31,72298.5,-5.03,-42.69,-42.89,0,*5A
1516622621.88,20573,4.31,72294.5,-5.01,-42.89,-43.09,0,*5E
1516622623.12,20574,4.31,72296.3,-5.01,-42.75,-42.95,0,*5E
1516622624.34,20575,4.31,72292.3,-5.01,-43.61,-43.81,0,*5F
1516622625.58,20576,4.31,72294.0,-5.01,-42.89,-43.09,0,*5B
1516622626.78,20577,4.31,72298.0,-5.01,-42.75,-42.89,0,*50
1516622628.0,20578,4.31,72296.3,-5.01,-43.15,-43.21,0,*5B
1516622629.21,20579,4.31,72292.0,-5.01,-43.35,-43.35,0,*5D
1516622630.44,20580,4.31,72298.0,-5.01,-43.09,-43.15,0,*56
1516622631.7,20581,4.31,72294.5,-4.97,-42.83,-43.01,0,*5F
1516622632.91,20582,4.31,72294.0,-4.95,-42.51,-42.63,0,*54
1516622634.2,20583,4.31,72294.5,-4.97,-42.69,-42.83,0,*52
1516622635.48,20584,4.31,72294.0,-4.97,-42.69,-42.83,0,*55
1516622636.68,20585,4.31,72298.8,-4.95,-43.95,-44.07,0,*5E
1516622637.95,20586,4.31,72298.0,-4.97,-44.93,-45.21,0,*5B
1516622639.15,20587,4.31,72292.8,-5.01,-45.41,-45.53,0,*5F
1516622640.41,20588,4.31,72296.0,-5.03,-44.67,-44.87,0,*5F
1516622641.7,20589,4.31,72292.0,-5.03,-42.95,-43.09,0,*54
1516622642.92,20590,4.31,72294.8,-5.01,-42.57,-42.89,0,*59
1516622644.15,20591,4.31,72294.0,-5.01,-42.19,-42.37,0,*57
1516622645.38,20592,4.31,72296.5,-5.01,-43.09,-43.15,0,*55
1516622646.63,20593,4.31,72292.5,-4.97,-43.01,-43.01,0,*57
1516622647.89,20594,4.31,72296.0,-4.97,-43.49,-43.67,0,*5C
1516622649.13,20595,4.31,72294.5,-4.97,-42.89,-43.01,0,*50
1516622650.38,20596,4.31,72294.0,-4.97,-43.15,-43.29,0,*5D
1516622651.64,20597,4.31,72294.3,-4.95,-43.29,-43.29,0,*51
1516622652.89,20598,4.31,72294.3,-4.97,-43.15,-43.29,0,*53
1516622654.12,20599,4.31,72294.3,-4.95,-42.83,-42.89,0,*55
1516622655.35,20600,4.31,72292.0,-4.95,-43.29,-43.49,0,*5A
1516622656.58,20601,4.31,72292.5,-4.97,-42.89,-42.89,0,*5F
1516622657.81,20602,4.31,72294.0,-4.95,-43.15,-43.09,0,*53
1516622659.1,20603,4.31,72294.3,-4.97,-43.55,-43.67,0,*5C
1516622660.33,20604,4.31,72294.5,-4.97,-43.35,-43.49,0,*51
1516622661.59,20605,4.31,72294.8,-4.95,-42.83,-43.09,0,*5A
1516622662.82,20606,4.31,72294.5,-4.95,-43.67,-43.75,0,*59
1516622664.02,20607,4.31,72296.5,-4.95,-44.53,-44.61,0,*5A
1516622665.22,20608,4.31,72294.3,-4.95,-44.41,-44.61,0,*56
1516622666.48,20609,4.31,72290.8,-4.97,-44.13,-44.27,0,*50
1516622667.74,20610,4.31,72296.8,-4.97,-44.93,-45.13,0,*56
1516622668.98,20611,4.31,72294.3,-5.03,-44.79,-44.99,0,*5C
1516622670.19,20612,4.31,72292.5,-5.01,-44.79,-44.99,0,*5D
1516622671.48,20613,4.31,72292.5,-5.03,-46.27,-46.27,0,*50
1516622672.71,20614,4.31,72292.3,-5.03,-46.35,-46.55,0,*51
1516622673.94,20615,4.31,72294.5,-5.09,-45.81,-45.87,0,*5A
1516622675.15,20616,4.31,72294.3,-5.09,-44.99,-45.13,0,*5C
1516622676.38,20617,4.31,72298.0,-5.09,-44.47,-44.61,0,*5A
1516622677.61,20618,4.31,72294.5,-5.09,-43.49,-43.55,0,*5C
1516622678.87,20619,4.31,72296.0,-5.11,-44.21,-44.41,0,*5F
1516622680.1,20620,4.31,72294.3,-5.09,-45.61,-45.81,0,*54
1516622681.36,20621,4.31,72296.3,-5.11,-45.47,-45.67,0,*50
1516622682.58,20622,4.31,72294.8,-5.11,-46.75,-46.97,0,*5D
1516622683.79,20623,4.31,72296.5,-5.13,-46.55,-46.97,0,*5C
1516622685.0,20624,4.31,72294.0,-5.17,-45.13,-45.67,0,*52
1516622686.28,20625,4.31,72294.5,-5.19,-45.81,-45.81,0,*5E
1516622687.54,20626,4.31,72296.3,-5.19,-43.67,-43.75,0,*5E
1516622688.79,20627,4.31,72294.5,-5.19,-42.63,-42.83,0,*52
1516622690.05,20628,4.31,72292.0,-5.19,-42.63,-42.83,0,*5D
1516622691.28,20629,4.31,72294.3,-5.17,-42.37,-42.57,0,*5A
1516622692.51,20630,4.31,72292.0,-5.13,-43.09,-43.15,0,*5D
1516622693.79,20631,4.31,72294.8,-5.11,-43.81,-44.01,0,*5C
1516622695.02,20632,4.31,72294.8,-5.17,-44.61,-44.67,0,*50
1516622696.24,20633,4.31,72296.3,-5.13,-44.61,-44.67,0,*55
1516622697.45,20634,4.31,72298.0,-5.13,-44.61,-44.61,0,*54
1516622698.65,20635,4.31,72292.0,-5.17,-44.41,-44.41,0,*51
1516622699.88,20636,4.31,72292.8,-5.13,-44.47,-44.61,0,*52
1516622701.15,20637,4.31,72294.0,-5.17,-44.21,-44.21,0,*53
1516622702.37,20638,4.31,72294.0,-5.13,-44.33,-44.41,0,*5D
1516622703.63,20639,4.31,72294.3,-5.17,-43.67,-43.81,0,*55
1516622704.83,20640,4.31,72292.5,-5.17,-44.41,-44.61,0,*51
1516622706.07,20641,4.31,72296.3,-5.17,-45.27,-45.53,0,*51
1516622707.28,20642,4.31,72292.8,-5.17,-44.41,-44.61,0,*53
1516622708.51,20643,4.31,72296.5,-5.17,-44.27,-44.47,0,*56
1516622709.74,20644,4.31,72294.3,-5.17,-44.21,-44.41,0,*51
1516622711.0,20645,4.31,72292.8,-5.17,-43.81,-43.81,0,*56
1516622712.2,20646,4.31,72292.5,-5.17,-43.35,-43.35,0,*55
1516622713.41,20647,4.31,72294.0,-5.13,-43.15,-43.15,0,*50
1516622714.62,20648,4.31,72296.5,-5.17,-42.63,-42.75,0,*5C
1516622715.88,20649,4.31,72292.8,-5.13,-42.69,-42.69,0,*5E
1516622717.14,20650,4.31,72296.3,-5.13,-43.09,-43.29,0,*54
1516622718.35,20651,4.31,72296.5,-5.13,-43.35,-43.41,0,*54
1516622719.6,20652,4.31,72294.3,-5.13,-43.81,-44.13,0,*58
1516622720.81,20653,4.31,72292.3,-5.13,-44.53,-44.61,0,*54
1516622722.07,20654,4.31,72294.8,-5.11,-44.21,-44.41,0,*56
1516622723.27,20655,4.31,72296.8,-5.13,-44.53,-44.61,0,*52
1516622724.49,20656,4.31,72296.8,-5.13,-43.75,-43.95,0,*5E
1516622725.74,20657,4.31,72294.5,-5.17,-43.81,-43.81,0,*55
1516622726.95,20658,4.31,72292.0,-5.13,-43.61,-43.75,0,*5B
1516622728.16,20659,4.31,72296.0,-5.13,-43.41,-43.35,0,*5C
1516622729.39,20660,4.31,72296.0,-5.13,-44.33,-44.41,0,*50
1516622730.68,20661,4.31,72294.3,-5.11,-44.01,-44.21,0,*54
1516622731.95,20662,4.31,72292.3,-5.11,-43.55,-43.81,0,*5C
1516622733.16,20663,4.31,72294.3,-5.09,-43.75,-43.87,0,*50
1516622734.38,20664,4.31,72292.5,-5.11,-44.41,-44.53,0,*50
1516622735.66,20665,4.31,72294.5,-5.11,-44.13,-44.33,0,*50
1516622736.94,20666,4.31,72298.5,-5.11,-44.01,-44.33,0,*50
1516622738.17,20667,4.31,72294.0,-5.11,-44.99,-45.21,0,*52
1516622739.39,20668,4.31,72292.3,-5.13,-45.21,-45.41,0,*5B
1516622740.64,20669,4.31,72294.5,-5.13,-43.81,-44.01,0,*53
1516622741.87,20670,4.31,72296.0,-5.17,-43.15,-43.21,0,*57
1516622743.09,20671,4.31,72294.0,-5.13,-44.41,-44.67,0,*51
1516622744.33,20672,4.31,72296.5,-5.17,-44.87,-45.07,0,*5B
1516622745.57,20673,4.31,72292.5,-5.17,-44.87,-45.07,0,*5A
1516622746.83,20674,4.31,72298.3,-5.17,-43.67,-43.67,0,*54
1516622748.04,20675,4.31,72298.0,-5.13,-43.75,-43.75,0,*51
1516622749.26,20676,4.31,72292.8,-5.13,-43.61,-43.75,0,*57
1516622750.49,20677,4.31,72292.3,-5.13,-42.75,-43.09,0,*59
1516622751.72,20678,4.31,72292.3,-5.13,-43.55,-43.75,0,*5E
1516622752.96,20679,4.31,72294.5,-5.13,-43.61,-43.81,0,*53
1516622754.19,20680,4.31,72296.0,-5.11,-43.35,-43.41,0,*5A
1516622755.43,20681,4.31,72296.3,-5.11,-43.61,-43.95,0,*53
1516622756.67,20682,4.31,72294.5,-5.09,-43.55,-43.95,0,*5E
1516622757.92,20683,4.31,72296.0,-5.09,-43.09,-43.29,0,*51
1516622759.18,20684,4.31,72296.8,-5.11,-43.55,-43.75,0,*5F
1516622760.41,20685,4.31,72296.3,-5.09,-43.21,-43.49,0,*5B
1516622761.65,20686,4.31,72294.3,-5.09,-43.67,-43.95,0,*5B
1516622762.88,20687,4.31,72292.3,-5.09,-43.67,-44.07,0,*56
1516622764.08,20688,4.31,72292.3,-5.09,-43.75,-43.87,0,*55
1516622765.32,20689,4.38,72296.3,-5.09,-43.29,-43.35,0,*54
1516622766.53,20690,4.31,72296.0,-5.09,-42.51,-42.63,0,*50
1516622767.76,20691,4.31,72298.3,-5.09,-42.69,-42.89,0,*5E
1516622768.97,20692,4.31,72296.3,-5.09,-43.35,-43.49,0,*58
1516622770.25,20693,4.31,72296.5,-5.07,-43.67,-44.01,0,*5B
1516622771.5,20694,4.31,72294.5,-5.07,-43.81,-43.87,0,*5D
1516622772.73,20695,4.31,72294.5,-5.07,-43.41,-43.61,0,*58
1516622773.97,20696,4.31,72294.8,-5.05,-43.61,-43.81,0,*55
1516622775.22,20697,4.31,72294.8,-5.07,-43.67,-43.87,0,*56
1516622776.48,20698,4.31,72294.5,-5.07,-43.61,-43.81,0,*59
1516622777.69,20699,4.31,72294.8,-5.05,-43.41,-43.49,0,*5C
1516622778.95,20700,4.31,72296.5,-5.07,-43.61,-43.81,0,*59
1516622780.18,20701,4.31,72296.3,-5.07,-43.15,-43.15,0,*56
1516622781.41,20702,4.31,72294.0,-5.05,-42.75,-42.83,0,*5E
1516622782.69,20703,4.31,72296.3,-5.07,-42.83,-42.95,0,*53
1516622783.93,20704,4.31,72296.0,-5.05,-42.83,-43.15,0,*5F
1516622785.14,20705,4.31,72294.3,-5.05,-42.37,-42.63,0,*51
1516622786.38,20706,4.31,72294.8,-5.03,-42.37,-42.75,0,*53
1516622787.61,20707,4.38,72298.8,-5.01,-42.57,-42.75,0,*56
1516622788.84,20708,4.31,72294.8,-5.01,-43.35,-43.55,0,*5F
1516622790.07,20709,4.31,72296.0,-5.01,-43.95,-44.21,0,*50
1516622791.3,20710,4.31,72296.0,-5.01,-43.35,-43.55,0,*56
1516622792.56,20711,4.31,72294.8,-5.03,-44.21,-44.61,0,*57
1516622793.83,20712,4.31,72296.3,-5.03,-43.81,-44.13,0,*5C
1516622795.12,20713,4.31,72296.3,-5.03,-44.01,-44.21,0,*53
1516622796.37,20714,4.38,72298.3,-5.03,-42.57,-42.75,0,*56
1516622797.66,20715,4.31,72296.5,-5.03,-43.09,-43.21,0,*5D
1516622798.91,20716,4.31,72294.8,-5.01,-43.21,-43.55,0,*55
1516622800.12,20717,4.31,72296.0,-5.01,-42.51,-42.75,0,*51
1516622801.34,20718,4.31,72298.3,-5.01,-42.51,-42.57,0,*5E
1516622802.61,20719,4.31,72294.0,-4.97,-43.29,-43.35,0,*5A
1516622803.87,20720,4.31,72296.3,-4.97,-42.89,-43.09,0,*54
1516622805.13,20721,4.38,72296.5,-4.97,-43.29,-43.75,0,*55
1516622806.41,20722,4.38,72296.8,-4.97,-42.69,-42.83,0,*5B
1516622807.64,20723,4.38,72296.3,-4.95,-42.63,-42.83,0,*52
1516622808.84,20724,4.31,72296.8,-4.95,-43.35,-43.49,0,*50
1516622810.07,20725,4.38,72296.8,-4.95,-42.89,-43.29,0,*51
1516622811.31,20726,4.38,72298.5,-4.95,-43.09,-43.49,0,*5D
1516622812.53,20727,4.38,72296.0,-4.95,-42.83,-43.01,0,*53
1516622813.8,20728,4.31,72298.0,-4.93,-43.09,-43.41,0,*5D
1516622815.04,20729,4.31,72298.8,-4.93,-43.61,-43.87,0,*58
1516622816.27,20730,4.31,72298.5,-4.95,-44.61,-44.93,0,*53
1516622817.52,20731,4.31,72296.0,-4.97,-45.81,-46.21,0,*54
1516622818.76,20732,4.31,72298.8,-4.97,-45.33,-45.61,0,*59
1516622819.99,20733,4.38,72298.8,-4.97,-44.61,-44.79,0,*56
1516622821.22,20734,4.31,72296.0,-5.01,-44.33,-44.79,0,*58
1516622822.44,20735,4.31,72296.3,-5.01,-44.47,-44.79,0,*5A
1516622823.71,20736,4.31,72296.0,-5.03,-44.33,-44.47,0,*55
1516622824.95,20737,4.38,72296.5,-4.97,-43.75,-43.87,0,*56
1516622826.17,20738,4.38,72296.0,-5.01,-44.47,-44.99,0,*59
1516622827.43,20739,4.31,72296.0,-5.03,-44.33,-44.61,0,*5E
1516622828.68,20740,4.38,72302.5,-5.03,-43.75,-44.01,0,*53
1516622829.93,20741,4.31,72298.0,-5.01,-44.67,-45.07,0,*53
1516622831.19,20742,4.31,72298.8,-5.03,-45.87,-46.15,0,*5D
1516622832.44,20743,4.31,72294.0,-5.03,-45.41,-45.47,0,*52
1516622833.67,20744,4.31,72296.3,-5.05,-45.13,-45.47,0,*54
1516622834.91,20745,4.31,72296.5,-5.05,-44.67,-44.87,0,*5A
1516622836.17,20746,4.38,72298.8,-5.07,-44.67,-44.87,0,*5B
1516622837.4,20747,4.38,72298.3,-5.05,-44.21,-44.41,0,*50
1516622838.67,20748,4.31,72296.5,-5.07,-42.95,-43.01,0,*57
1516622839.9,20749,4.31,72294.5,-5.05,-42.25,-42.45,0,*5E
1516622841.18,20750,4.31,72296.0,-5.03,-42.31,-42.57,0,*56
1516622842.41,20751,4.38,72298.3,-5.03,-42.37,-42.51,0,*57
1516622843.65,20752,4.31,72294.0,-5.01,-42.13,-42.31,0,*56
1516622844.93,20753,4.31,72296.0,-4.97,-42.83,-43.09,0,*5A
1516622846.19,20754,4.38,72298.8,-4.97,-42.69,-42.89,0,*50
1516622847.45,20755,4.31,72296.0,-4.97,-42.45,-42.51,0,*5A
1516622848.71,20756,4.38,72298.0,-4.97,-42.25,-42.45,0,*5A
1516622849.94,20757,4.31,72296.0,-4.95,-42.05,-42.13,0,*58
1516622851.2,20758,4.31,72296.8,-4.93,-41.99,-42.19,0,*5D
1516622852.48,20759,4.38,72296.8,-4.93,-37.51,-42.45,0,*50
1516622853.68,20760,4.38,72298.8,-4.91,-30.23,-41.61,0,*5F
1516622854.93,20761,4.31,72296.0,-4.91,-30.73,-42.05,0,*5A
1516622856.14,20762,4.31,72294.5,-4.91,-32.35,-42.63,0,*59
1516622857.4,20763,4.31,72294.8,-4.89,-33.55,-43.21,0,*51
1516622858.64,20764,4.31,72296.5,-4.89,-34.77,-43.61,0,*55
1516622859.9,20765,4.38,72298.3,-4.89,-34.77,-44.13,0,*56
1516622861.18,20766,4.38,72296.3,-4.93,-33.27,-43.21,0,*5A
1516622862.41,20767,4.38,72298.0,-4.91,-25.81,-42.37,0,*54
1516622863.64,20768,4.38,72296.3,-4.91,-32.19,-43.61,0,*5E
1516622864.9,20769,4.38,72298.0,-4.93,-34.89,-45.27,0,*56
1516622866.15,20770,4.31,72294.8,-4.93,-35.41,-45.33,0,*5E
1516622867.39,20771,4.31,72294.0,-4.95,-35.23,-45.21,0,*5E
1516622868.59,20772,4.38,72294.3,-4.95,-35.13,-44.99,0,*5C
1516622869.84,20773,4.38,72296.5,-4.97,-35.53,-45.33,0,*5A
1516622871.11,20774,4.38,72294.8,-4.97,-34.59,-44.93,0,*5D
1516622872.37,20775,4.31,72294.3,-5.03,-26.03,-43.21,0,*52
1516622873.65,20776,4.31,72292.5,-5.03,-24.87,-41.55,0,*5E
1516622874.94,20777,4.38,72292.8,-5.03,-25.71,-40.97,0,*58
1516622876.23,20778,4.38,72296.8,-5.03,-31.23,-43.09,0,*51
1516622877.47,20779,4.38,72292.8,-4.97,-42.25,-43.49,0,*5A
1516622878.7,20780,4.38,72294.0,-4.97,-43.87,-44.07,0,*58
1516622879.93,20781,4.38,72296.0,-4.97,-44.53,-44.79,0,*5E
1516622881.17,20782,4.31,72292.0,-4.97,-45.41,-45.53,0,*56
1516622882.42,20783,4.38,72292.8,-5.01,-45.73,-46.07,0,*5A
1516622883.67,20784,4.38,72298.5,-5.03,-45.73,-45.95,0,*57
1516622884.9,20785,4.38,72292.5,-5.03,-45.21,-45.41,0,*58
1516622886.13,20786,4.38,72292.5,-5.07,-45.33,-45.53,0,*5F
1516622887.39,20787,4.38,72292.8,-5.07,-45.07,-45.33,0,*5F
1516622888.62,20788,4.31,72292.0,-5.07,-45.33,-45.53,0,*51
1516622889.83,20789,4.38,72292.0,-5.09,-45.53,-45.61,0,*59
1516622891.04,20790,4.31,72290.3,-5.09,-45.21,-45.41,0,*56
1516622892.27,20791,4.38,72294.8,-5.09,-44.61,-44.73,0,*52
1516622893.51,20792,4.38,72298.3,-5.09,-44.27,-44.47,0,*54
1516622894.76,20793,4.31,72294.5,-5.07,-44.07,-44.21,0,*59
1516622896.0,20794,4.38,72292.0,-5.07,-44.27,-44.27,0,*5A
1516622897.26,20795,4.38,72294.3,-5.07,-45.07,-45.33,0,*5C
1516622898.47,20796,4.38,72292.3,-5.09,-45.13,-45.21,0,*57
1516622899.75,20797,4.38,72292.5,-5.11,-45.07,-45.07,0,*5E
1516622900.98,20798,4.38,72294.5,-5.11,-44.53,-44.41,0,*52
1516622902.24,20799,4.38,72294.8,-5.09,-44.21,-44.13,0,*58
1516622903.49,20800,4.38,72292.3,-5.09,-44.13,-44.33,0,*54
1516622904.74,20801,4.38,72294.5,-5.11,-44.67,-44.79,0,*51